Time,TemperatureF,DewpointF,PressureIn,WindDirection,WindDirectionDegrees,WindSpeedMPH,WindSpeedGustMPH,Humidity,HourlyPrecipIn,Conditions,Clouds,dailyrainin,SoftwareType,DateUTC
2019-01-20 00:04:54,37.7,36.0,29.87,WNW,292,6.5,18.0,93,0.00,,,0.00,Rainwise IP-100,2019-01-20 05:04:54,
2019-01-20 00:09:58,37.7,36.0,29.87,NW,315,7.9,10.0,93,0.00,,,0.00,Rainwise IP-100,2019-01-20 05:09:58,
2019-01-20 00:14:58,37.8,36.0,29.87,NW,315,4.4,9.0,93,0.00,,,0.00,Rainwise IP-100,2019-01-20 05:14:58,
2019-01-20 00:19:58,37.9,36.0,29.88,NW,315,2.3,14.0,93,0.00,,,0.00,Rainwise IP-100,2019-01-20 05:19:58,
2019-01-20 00:24:58,37.9,37.0,29.86,NW,315,12.8,11.0,94,0.00,,,0.00,Rainwise IP-100,2019-01-20 05:24:58,
2019-01-20 00:29:58,38.0,37.0,29.87,North,360,2.3,14.0,94,0.00,,,0.00,Rainwise IP-100,2019-01-20 05:29:58,
2019-01-20 00:34:54,38.1,37.0,29.85,West,270,7.5,15.0,94,0.00,,,0.00,Rainwise IP-100,2019-01-20 05:34:54,
2019-01-20 00:39:58,38.2,37.0,29.82,NW,315,10.3,25.0,94,0.00,,,0.00,Rainwise IP-100,2019-01-20 05:39:58,
2019-01-20 00:44:58,38.3,37.0,29.81,WNW,292,8.4,19.0,94,0.00,,,0.00,Rainwise IP-100,2019-01-20 05:44:58,
2019-01-20 00:49:58,38.3,37.0,29.80,WNW,292,10.3,18.0,94,0.00,,,0.00,Rainwise IP-100,2019-01-20 05:49:58,
2019-01-20 00:54:58,38.4,37.0,29.79,WNW,292,2.3,13.0,94,0.00,,,0.00,Rainwise IP-100,2019-01-20 05:54:58,
2019-01-20 00:59:54,38.6,38.0,29.78,West,270,4.2,12.0,94,0.00,,,0.00,Rainwise IP-100,2019-01-20 05:59:54,
2019-01-20 01:04:54,38.8,38.0,29.77,NW,315,1.2,14.0,94,0.00,,,0.00,Rainwise IP-100,2019-01-20 06:04:54,
2019-01-20 01:09:58,38.9,38.0,29.78,NW,315,5.6,15.0,94,0.00,,,0.00,Rainwise IP-100,2019-01-20 06:09:58,
2019-01-20 01:14:54,38.9,38.0,29.78,West,270,16.8,22.0,94,0.00,,,0.00,Rainwise IP-100,2019-01-20 06:14:54,
2019-01-20 01:19:54,38.9,38.0,29.79,NW,315,7.7,23.0,94,0.00,,,0.00,Rainwise IP-100,2019-01-20 06:19:54,
2019-01-20 01:24:58,38.9,38.0,29.80,SW,225,10.0,12.0,94,0.00,,,0.00,Rainwise IP-100,2019-01-20 06:24:58,
2019-01-20 01:29:54,38.9,38.0,29.80,SW,225,14.7,13.0,94,0.00,,,0.00,Rainwise IP-100,2019-01-20 06:29:54,
2019-01-20 01:34:58,38.8,38.0,29.80,WSW,247,14.2,18.0,94,0.00,,,0.00,Rainwise IP-100,2019-01-20 06:34:58,
2019-01-20 01:39:54,38.7,38.0,29.79,West,270,12.4,17.0,94,0.00,,,0.00,Rainwise IP-100,2019-01-20 06:39:54,
2019-01-20 01:44:54,38.7,38.0,29.79,SW,225,7.7,13.0,95,0.00,,,0.00,Rainwise IP-100,2019-01-20 06:44:54,
2019-01-20 01:49:58,38.7,38.0,29.79,WNW,292,5.8,11.0,95,0.00,,,0.00,Rainwise IP-100,2019-01-20 06:49:58,
2019-01-20 01:54:58,38.7,38.0,29.79,WNW,292,5.8,5.0,95,0.00,,,0.00,Rainwise IP-100,2019-01-20 06:54:58,
2019-01-20 01:59:54,39.0,38.0,29.79,SW,225,9.3,11.0,95,0.00,,,0.00,Rainwise IP-100,2019-01-20 06:59:54,
2019-01-20 02:04:58,39.0,38.0,29.79,West,270,5.8,12.0,95,0.00,,,0.00,Rainwise IP-100,2019-01-20 07:04:58,
2019-01-20 02:09:54,38.9,38.0,29.78,SW,225,10.5,10.0,95,0.00,,,0.00,Rainwise IP-100,2019-01-20 07:09:54,
2019-01-20 02:14:58,38.8,38.0,29.79,SW,225,12.6,16.0,95,0.00,,,0.00,Rainwise IP-100,2019-01-20 07:14:58,
2019-01-20 02:19:54,38.7,38.0,29.80,SW,225,11.4,16.0,95,0.00,,,0.00,Rainwise IP-100,2019-01-20 07:19:54,
2019-01-20 02:24:58,38.5,38.0,29.78,WSW,247,10.7,17.0,95,0.00,,,0.00,Rainwise IP-100,2019-01-20 07:24:58,
2019-01-20 02:29:54,38.4,37.0,29.80,SW,225,12.8,13.0,95,0.00,,,0.00,Rainwise IP-100,2019-01-20 07:29:54,
2019-01-20 02:34:58,38.3,37.0,29.75,West,270,7.7,17.0,95,0.00,,,0.00,Rainwise IP-100,2019-01-20 07:34:58,
2019-01-20 02:39:54,38.3,37.0,29.75,WNW,292,6.5,16.0,95,0.00,,,0.00,Rainwise IP-100,2019-01-20 07:39:54,
2019-01-20 02:44:54,38.3,37.0,29.75,SW,225,4.9,11.0,95,0.00,,,0.00,Rainwise IP-100,2019-01-20 07:44:54,
2019-01-20 02:49:54,38.3,37.0,29.71,WSW,247,14.9,16.0,95,0.00,,,0.00,Rainwise IP-100,2019-01-20 07:49:54,
2019-01-20 02:54:58,38.3,37.0,29.70,West,270,11.4,18.0,95,0.00,,,0.00,Rainwise IP-100,2019-01-20 07:54:58,
2019-01-20 02:59:58,38.3,37.0,29.68,West,270,6.8,15.0,95,0.00,,,0.00,Rainwise IP-100,2019-01-20 07:59:58,
2019-01-20 03:04:54,38.5,38.0,29.68,WNW,292,4.4,11.0,95,0.00,,,0.00,Rainwise IP-100,2019-01-20 08:04:54,
2019-01-20 03:09:54,38.6,38.0,29.69,NW,315,9.3,20.0,95,0.00,,,0.00,Rainwise IP-100,2019-01-20 08:09:54,
2019-01-20 03:14:58,38.7,38.0,29.69,NW,315,4.7,12.0,95,0.00,,,0.00,Rainwise IP-100,2019-01-20 08:14:58,
2019-01-20 03:19:54,38.8,38.0,29.68,WNW,292,7.7,13.0,95,0.00,,,0.00,Rainwise IP-100,2019-01-20 08:19:54,
2019-01-20 03:24:54,38.8,38.0,29.68,West,270,8.6,16.0,95,0.00,,,0.00,Rainwise IP-100,2019-01-20 08:24:54,
2019-01-20 03:29:58,38.9,38.0,29.66,West,270,11.2,16.0,95,0.00,,,0.00,Rainwise IP-100,2019-01-20 08:29:58,
2019-01-20 03:34:58,38.9,38.0,29.67,West,270,9.6,17.0,95,0.00,,,0.00,Rainwise IP-100,2019-01-20 08:34:58,
2019-01-20 03:39:54,38.9,38.0,29.66,West,270,12.6,14.0,95,0.00,,,0.00,Rainwise IP-100,2019-01-20 08:39:54,
2019-01-20 03:44:58,38.9,38.0,29.67,NNE,22,1.9,14.0,95,0.00,,,0.00,Rainwise IP-100,2019-01-20 08:44:58,
2019-01-20 03:49:58,38.9,38.0,29.67,WNW,292,6.8,13.0,95,0.00,,,0.00,Rainwise IP-100,2019-01-20 08:49:58,
2019-01-20 03:54:58,38.9,38.0,29.66,SW,225,16.3,18.0,95,0.00,,,0.00,Rainwise IP-100,2019-01-20 08:54:58,
2019-01-20 03:59:58,39.0,38.0,29.65,SW,225,8.6,16.0,95,0.00,,,0.00,Rainwise IP-100,2019-01-20 08:59:58,
2019-01-20 04:04:54,39.1,38.0,29.65,NW,315,6.3,15.0,95,0.00,,,0.00,Rainwise IP-100,2019-01-20 09:04:54,
2019-01-20 04:09:58,39.2,38.0,29.64,WNW,292,11.7,14.0,95,0.00,,,0.00,Rainwise IP-100,2019-01-20 09:09:58,
2019-01-20 04:14:58,39.2,38.0,29.62,WNW,292,4.2,15.0,95,0.00,,,0.00,Rainwise IP-100,2019-01-20 09:14:58,
2019-01-20 04:19:54,39.2,38.0,29.61,WNW,292,8.9,11.0,95,0.00,,,0.00,Rainwise IP-100,2019-01-20 09:19:54,
2019-01-20 04:24:58,39.3,38.0,29.60,WNW,292,9.6,15.0,95,0.00,,,0.00,Rainwise IP-100,2019-01-20 09:24:58,
2019-01-20 04:29:58,39.2,38.0,29.60,West,270,13.5,11.0,95,0.00,,,0.00,Rainwise IP-100,2019-01-20 09:29:58,
2019-01-20 04:34:54,39.3,38.0,29.60,NW,315,7.2,16.0,95,0.00,,,0.00,Rainwise IP-100,2019-01-20 09:34:54,
2019-01-20 04:39:58,39.5,39.0,29.60,WNW,292,7.9,17.0,95,0.00,,,0.00,Rainwise IP-100,2019-01-20 09:39:58,
2019-01-20 04:44:58,39.6,39.0,29.59,WSW,247,5.6,19.0,95,0.00,,,0.00,Rainwise IP-100,2019-01-20 09:44:58,
2019-01-20 04:49:58,39.7,39.0,29.59,NNW,337,8.6,19.0,95,0.00,,,0.00,Rainwise IP-100,2019-01-20 09:49:58,
2019-01-20 04:54:58,39.8,39.0,29.58,NW,315,6.1,20.0,95,0.00,,,0.00,Rainwise IP-100,2019-01-20 09:54:58,
2019-01-20 04:59:54,39.9,39.0,29.58,WSW,247,11.2,19.0,95,0.00,,,0.00,Rainwise IP-100,2019-01-20 09:59:54,
2019-01-20 05:04:58,40.0,39.0,29.57,West,270,9.3,18.0,95,0.00,,,0.00,Rainwise IP-100,2019-01-20 10:04:58,
2019-01-20 05:09:58,40.0,39.0,29.56,SW,225,4.4,17.0,95,0.00,,,0.00,Rainwise IP-100,2019-01-20 10:09:58,
2019-01-20 05:14:58,39.9,39.0,29.56,SW,225,10.7,16.0,95,0.00,,,0.00,Rainwise IP-100,2019-01-20 10:14:58,
2019-01-20 05:19:58,39.7,39.0,29.55,West,270,10.7,13.0,95,0.00,,,0.00,Rainwise IP-100,2019-01-20 10:19:58,
2019-01-20 05:24:54,39.6,39.0,29.55,SW,225,6.3,21.0,95,0.00,,,0.00,Rainwise IP-100,2019-01-20 10:24:54,
2019-01-20 05:29:54,39.5,39.0,29.54,West,270,9.6,16.0,95,0.00,,,0.00,Rainwise IP-100,2019-01-20 10:29:54,
2019-01-20 05:34:58,39.4,38.0,29.52,NW,315,9.8,16.0,95,0.00,,,0.00,Rainwise IP-100,2019-01-20 10:34:58,
2019-01-20 05:39:58,39.4,38.0,29.52,West,270,4.0,23.0,95,0.00,,,0.00,Rainwise IP-100,2019-01-20 10:39:58,
2019-01-20 05:44:58,39.6,39.0,29.52,NW,315,11.7,18.0,95,0.00,,,0.00,Rainwise IP-100,2019-01-20 10:44:58,
2019-01-20 05:49:58,39.9,39.0,29.53,West,270,4.7,25.0,95,0.00,,,0.00,Rainwise IP-100,2019-01-20 10:49:58,
2019-01-20 05:54:58,40.1,39.0,29.52,WNW,292,11.2,18.0,95,0.00,,,0.00,Rainwise IP-100,2019-01-20 10:54:58,
2019-01-20 05:59:58,40.2,39.0,29.52,NW,315,4.9,18.0,95,0.00,,,0.00,Rainwise IP-100,2019-01-20 10:59:58,
2019-01-20 06:04:54,40.2,39.0,29.52,WSW,247,7.0,13.0,95,0.00,,,0.00,Rainwise IP-100,2019-01-20 11:04:54,
2019-01-20 06:09:58,40.3,39.0,29.52,NW,315,4.0,7.0,95,0.00,,,0.00,Rainwise IP-100,2019-01-20 11:09:58,
2019-01-20 06:14:54,40.3,39.0,29.52,NW,315,4.0,4.0,95,0.00,,,0.00,Rainwise IP-100,2019-01-20 11:14:54,
2019-01-20 06:16:58,40.3,39.0,29.52,NW,315,4.0,4.0,95,0.00,,,0.00,Rainwise IP-100,2019-01-20 11:16:58,
2019-01-20 06:54:54,41.3,40.0,29.46,WNW,292,6.8,7.0,95,0.00,,,0.00,Rainwise IP-100,2019-01-20 11:54:54,
2019-01-20 06:59:54,41.3,40.0,29.46,WNW,292,6.8,6.0,95,0.00,,,0.00,Rainwise IP-100,2019-01-20 11:59:54,
2019-01-20 07:04:58,41.8,41.0,29.46,WNW,292,5.4,7.0,96,0.00,,,0.00,Rainwise IP-100,2019-01-20 12:04:58,
2019-01-20 07:09:58,42.1,41.0,29.45,WSW,247,6.8,10.0,96,0.00,,,0.00,Rainwise IP-100,2019-01-20 12:09:58,
2019-01-20 07:14:58,42.1,41.0,29.45,WSW,247,6.8,6.0,96,0.00,,,0.00,Rainwise IP-100,2019-01-20 12:14:58,
2019-01-20 07:17:58,42.1,41.0,29.45,WSW,247,6.8,6.0,96,0.00,,,0.00,Rainwise IP-100,2019-01-20 12:17:58,
2019-01-20 07:39:59,41.9,41.0,29.41,West,270,6.1,0.0,96,0.00,,,0.00,Rainwise IP-100,2019-01-20 12:39:59,
2019-01-20 07:44:55,42.2,41.0,29.41,NW,315,5.1,13.0,96,0.00,,,0.00,Rainwise IP-100,2019-01-20 12:44:55,
2019-01-20 07:49:59,42.9,42.0,29.41,NE,45,4.0,8.0,96,0.00,,,0.00,Rainwise IP-100,2019-01-20 12:49:59,
2019-01-20 07:54:59,43.4,42.0,29.41,NNW,337,3.0,9.0,96,0.00,,,0.00,Rainwise IP-100,2019-01-20 12:54:59,
2019-01-20 07:59:55,43.5,43.0,29.41,West,270,7.2,10.0,95,0.00,,,0.00,Rainwise IP-100,2019-01-20 12:59:55,
2019-01-20 08:04:55,43.4,42.0,29.42,SW,225,8.9,11.0,95,0.00,,,0.00,Rainwise IP-100,2019-01-20 13:04:55,
2019-01-20 08:09:55,42.6,42.0,29.43,West,270,7.7,10.0,95,0.00,,,0.00,Rainwise IP-100,2019-01-20 13:09:55,
2019-01-20 08:14:55,42.2,41.0,29.43,SW,225,3.7,15.0,95,0.00,,,0.00,Rainwise IP-100,2019-01-20 13:14:55,
2019-01-20 08:19:59,41.7,41.0,29.43,SW,225,4.7,9.0,95,0.00,,,0.00,Rainwise IP-100,2019-01-20 13:19:59,
2019-01-20 08:24:59,41.7,41.0,29.43,SW,225,4.7,7.0,95,0.00,,,0.00,Rainwise IP-100,2019-01-20 13:24:59,
2019-01-20 08:29:56,41.5,41.0,29.43,SW,225,5.4,4.0,96,0.00,,,0.00,Rainwise IP-100,2019-01-20 13:29:56,
2019-01-20 08:34:56,41.5,41.0,29.41,SW,225,10.3,10.0,96,0.00,,,0.00,Rainwise IP-100,2019-01-20 13:34:56,
2019-01-20 08:39:56,41.4,40.0,29.42,West,270,11.9,11.0,96,0.00,,,0.00,Rainwise IP-100,2019-01-20 13:39:56,
2019-01-20 08:44:56,41.1,40.0,29.39,WNW,292,7.9,11.0,96,0.00,,,0.00,Rainwise IP-100,2019-01-20 13:44:56,
2019-01-20 08:49:56,40.9,40.0,29.38,West,270,7.7,9.0,96,0.00,,,0.00,Rainwise IP-100,2019-01-20 13:49:56,
2019-01-20 08:54:56,41.2,40.0,29.36,WNW,292,1.2,12.0,96,0.00,,,0.00,Rainwise IP-100,2019-01-20 13:54:56,
2019-01-20 08:59:56,41.6,41.0,29.36,ENE,67,0.0,4.0,97,0.00,,,0.00,Rainwise IP-100,2019-01-20 13:59:56,
2019-01-20 09:04:56,42.1,41.0,29.36,SW,225,5.4,6.0,97,0.00,,,0.00,Rainwise IP-100,2019-01-20 14:04:56,
2019-01-20 09:09:56,42.4,41.0,29.36,SW,225,4.0,7.0,97,0.00,,,0.00,Rainwise IP-100,2019-01-20 14:09:56,
2019-01-20 09:14:56,42.8,42.0,29.35,SE,135,6.8,8.0,97,0.00,,,0.00,Rainwise IP-100,2019-01-20 14:14:56,
2019-01-20 09:19:56,43.9,43.0,29.33,ESE,112,0.0,9.0,97,0.00,,,0.00,Rainwise IP-100,2019-01-20 14:19:56,
2019-01-20 09:24:56,44.8,44.0,29.34,South,180,7.9,17.0,97,0.00,,,0.00,Rainwise IP-100,2019-01-20 14:24:56,
2019-01-20 09:29:56,44.8,44.0,29.35,SW,225,4.0,13.0,97,0.00,,,0.00,Rainwise IP-100,2019-01-20 14:29:56,
2019-01-20 09:34:56,44.1,43.0,29.34,West,270,3.3,5.0,97,0.00,,,0.00,Rainwise IP-100,2019-01-20 14:34:56,
2019-01-20 09:39:56,43.9,43.0,29.32,West,270,0.0,4.0,97,0.00,,,0.00,Rainwise IP-100,2019-01-20 14:39:56,
2019-01-20 09:44:56,43.8,43.0,29.32,SSW,202,4.0,4.0,97,0.00,,,0.00,Rainwise IP-100,2019-01-20 14:44:56,
2019-01-20 09:49:56,44.0,43.0,29.31,SW,225,6.5,6.0,97,0.00,,,0.00,Rainwise IP-100,2019-01-20 14:49:56,
2019-01-20 09:54:56,44.0,43.0,29.31,SW,225,6.5,9.0,97,0.00,,,0.00,Rainwise IP-100,2019-01-20 14:54:56,
2019-01-20 09:59:56,43.9,43.0,29.31,SW,225,5.8,8.0,97,0.00,,,0.00,Rainwise IP-100,2019-01-20 14:59:56,
2019-01-20 10:04:56,43.9,43.0,29.31,SW,225,5.6,7.0,97,0.00,,,0.00,Rainwise IP-100,2019-01-20 15:04:56,
2019-01-20 10:09:56,44.1,43.0,29.30,SSW,202,2.1,6.0,97,0.00,,,0.00,Rainwise IP-100,2019-01-20 15:09:56,
2019-01-20 10:14:56,44.4,43.0,29.29,SW,225,0.0,4.0,97,0.00,,,0.00,Rainwise IP-100,2019-01-20 15:14:56,
2019-01-20 10:19:56,44.9,44.0,29.30,SW,225,6.1,8.0,97,0.00,,,0.00,Rainwise IP-100,2019-01-20 15:19:56,
2019-01-20 10:24:56,45.1,44.0,29.29,SW,225,7.9,9.0,97,0.00,,,0.00,Rainwise IP-100,2019-01-20 15:24:56,
2019-01-20 10:29:56,45.0,44.0,29.31,SW,225,7.0,13.0,97,0.00,,,0.00,Rainwise IP-100,2019-01-20 15:29:56,
2019-01-20 10:34:56,44.9,44.0,29.30,West,270,5.6,11.0,97,0.00,,,0.00,Rainwise IP-100,2019-01-20 15:34:56,
2019-01-20 10:39:56,45.0,44.0,29.28,SW,225,4.9,7.0,97,0.00,,,0.00,Rainwise IP-100,2019-01-20 15:39:56,
2019-01-20 10:44:56,45.3,44.0,29.28,SW,225,4.4,5.0,98,0.00,,,0.00,Rainwise IP-100,2019-01-20 15:44:56,
2019-01-20 10:49:56,45.9,45.0,29.28,SW,225,2.1,4.0,98,0.00,,,0.00,Rainwise IP-100,2019-01-20 15:49:56,
2019-01-20 10:54:56,46.4,45.0,29.28,South,180,5.6,3.0,98,0.00,,,0.00,Rainwise IP-100,2019-01-20 15:54:56,
2019-01-20 10:59:56,46.3,45.0,29.35,SW,225,15.6,27.0,97,0.00,,,0.00,Rainwise IP-100,2019-01-20 15:59:56,
2019-01-20 11:04:56,44.4,43.0,29.36,SW,225,12.6,20.0,97,0.00,,,0.00,Rainwise IP-100,2019-01-20 16:04:56,
2019-01-20 11:09:56,43.1,42.0,29.34,SW,225,11.7,20.0,97,0.00,,,0.00,Rainwise IP-100,2019-01-20 16:09:56,
2019-01-20 11:14:56,42.2,41.0,29.36,SW,225,10.5,12.0,97,0.00,,,0.00,Rainwise IP-100,2019-01-20 16:14:56,
2019-01-20 11:19:56,42.0,41.0,29.34,SW,225,12.6,15.0,97,0.00,,,0.00,Rainwise IP-100,2019-01-20 16:19:56,
2019-01-20 11:24:56,41.8,41.0,29.32,WSW,247,8.4,16.0,97,0.00,,,0.00,Rainwise IP-100,2019-01-20 16:24:56,
2019-01-20 11:29:56,41.7,41.0,29.32,WSW,247,14.0,11.0,97,0.00,,,0.00,Rainwise IP-100,2019-01-20 16:29:56,
2019-01-20 11:34:56,41.7,41.0,29.31,SW,225,15.6,17.0,96,0.00,,,0.00,Rainwise IP-100,2019-01-20 16:34:56,
2019-01-20 11:39:56,41.6,41.0,29.32,SW,225,13.3,15.0,96,0.00,,,0.00,Rainwise IP-100,2019-01-20 16:39:56,
2019-01-20 11:44:56,41.1,40.0,29.32,SW,225,16.3,16.0,96,0.00,,,0.00,Rainwise IP-100,2019-01-20 16:44:56,
2019-01-20 11:49:56,40.7,40.0,29.33,SW,225,18.7,19.0,96,0.00,,,0.00,Rainwise IP-100,2019-01-20 16:49:56,
2019-01-20 11:54:56,40.4,39.0,29.33,West,270,14.7,22.0,96,0.00,,,0.00,Rainwise IP-100,2019-01-20 16:54:56,
2019-01-20 11:59:56,39.9,39.0,29.33,West,270,15.2,23.0,95,0.00,,,0.00,Rainwise IP-100,2019-01-20 16:59:56,
2019-01-20 12:04:56,39.6,39.0,29.33,SW,225,18.9,22.0,95,0.00,,,0.00,Rainwise IP-100,2019-01-20 17:04:56,
2019-01-20 12:09:56,39.3,38.0,29.33,WNW,292,15.9,21.0,95,0.00,,,0.00,Rainwise IP-100,2019-01-20 17:09:56,
2019-01-20 12:14:56,38.9,38.0,29.33,West,270,14.2,16.0,94,0.00,,,0.00,Rainwise IP-100,2019-01-20 17:14:56,
2019-01-20 12:19:56,38.6,38.0,29.32,WSW,247,15.6,20.0,94,0.00,,,0.00,Rainwise IP-100,2019-01-20 17:19:56,
2019-01-20 12:24:56,38.4,36.0,29.32,WSW,247,16.6,21.0,93,0.00,,,0.00,Rainwise IP-100,2019-01-20 17:24:56,
2019-01-20 12:29:56,38.3,36.0,29.32,WSW,247,15.9,22.0,93,0.00,,,0.00,Rainwise IP-100,2019-01-20 17:29:56,
2019-01-20 12:34:56,38.3,36.0,29.31,SW,225,19.8,25.0,92,0.00,,,0.00,Rainwise IP-100,2019-01-20 17:34:56,
2019-01-20 12:39:56,38.4,36.0,29.33,West,270,16.1,26.0,91,0.00,,,0.00,Rainwise IP-100,2019-01-20 17:39:56,
2019-01-20 12:44:56,38.5,37.0,29.33,WSW,247,19.1,27.0,91,0.00,,,0.00,Rainwise IP-100,2019-01-20 17:44:56,
2019-01-20 12:49:56,38.7,37.0,29.33,SW,225,21.7,25.0,90,0.00,,,0.00,Rainwise IP-100,2019-01-20 17:49:56,
2019-01-20 12:54:56,38.9,37.0,29.34,SW,225,14.9,21.0,90,0.00,,,0.00,Rainwise IP-100,2019-01-20 17:54:56,
2019-01-20 12:59:56,39.1,37.0,29.34,SW,225,14.7,22.0,90,0.00,,,0.00,Rainwise IP-100,2019-01-20 17:59:56,
2019-01-20 13:04:56,39.0,37.0,29.34,SW,225,14.0,18.0,90,0.00,,,0.00,Rainwise IP-100,2019-01-20 18:04:56,
2019-01-20 13:09:56,39.0,37.0,29.33,West,270,16.3,17.0,90,0.00,,,0.00,Rainwise IP-100,2019-01-20 18:09:56,
2019-01-20 13:14:56,39.1,37.0,29.34,West,270,11.2,18.0,90,0.00,,,0.00,Rainwise IP-100,2019-01-20 18:14:56,
2019-01-20 13:19:56,39.4,36.0,29.34,SW,225,13.1,18.0,89,0.00,,,0.00,Rainwise IP-100,2019-01-20 18:19:56,
2019-01-20 13:24:56,39.7,37.0,29.36,SW,225,6.5,20.0,89,0.00,,,0.00,Rainwise IP-100,2019-01-20 18:24:56,
2019-01-20 13:29:56,39.8,37.0,29.36,SW,225,17.0,14.0,88,0.00,,,0.00,Rainwise IP-100,2019-01-20 18:29:56,
2019-01-20 13:34:56,39.7,37.0,29.36,SW,225,16.8,23.0,86,0.00,,,0.00,Rainwise IP-100,2019-01-20 18:34:56,
2019-01-20 13:39:56,39.6,36.0,29.37,SW,225,12.4,23.0,85,0.00,,,0.00,Rainwise IP-100,2019-01-20 18:39:56,
2019-01-20 13:44:56,39.2,35.0,29.39,SSW,202,15.9,24.0,84,0.00,,,0.00,Rainwise IP-100,2019-01-20 18:44:56,
2019-01-20 13:49:56,38.5,35.0,29.39,WSW,247,14.5,23.0,82,0.00,,,0.00,Rainwise IP-100,2019-01-20 18:49:56,
2019-01-20 13:54:56,37.9,33.0,29.40,SW,225,16.1,29.0,81,0.00,,,0.00,Rainwise IP-100,2019-01-20 18:54:56,
2019-01-20 13:59:56,37.4,32.0,29.39,WSW,247,11.4,23.0,81,0.00,,,0.00,Rainwise IP-100,2019-01-20 18:59:56,
2019-01-20 14:04:56,37.1,32.0,29.39,SW,225,17.0,26.0,81,0.00,,,0.00,Rainwise IP-100,2019-01-20 19:04:56,
2019-01-20 14:09:56,36.8,32.0,29.41,SW,225,16.1,24.0,81,0.00,,,0.00,Rainwise IP-100,2019-01-20 19:09:56,
2019-01-20 14:14:56,36.3,31.0,29.40,SW,225,20.5,23.0,80,0.00,,,0.00,Rainwise IP-100,2019-01-20 19:14:56,
2019-01-20 14:19:56,35.7,31.0,29.40,SW,225,15.4,29.0,80,0.00,,,0.00,Rainwise IP-100,2019-01-20 19:19:56,
2019-01-20 14:24:56,35.0,29.0,29.40,SW,225,19.4,29.0,79,0.00,,,0.00,Rainwise IP-100,2019-01-20 19:24:56,
2019-01-20 14:29:56,34.3,29.0,29.40,SW,225,17.7,29.0,79,0.00,,,0.00,Rainwise IP-100,2019-01-20 19:29:56,
2019-01-20 14:34:56,33.7,29.0,29.41,SW,225,19.6,28.0,79,0.00,,,0.00,Rainwise IP-100,2019-01-20 19:34:56,
2019-01-20 14:39:56,33.2,28.0,29.44,SW,225,19.8,30.0,78,0.00,,,0.00,Rainwise IP-100,2019-01-20 19:39:56,
2019-01-20 14:44:56,32.8,28.0,29.44,SW,225,20.1,28.0,78,0.00,,,0.00,Rainwise IP-100,2019-01-20 19:44:56,
2019-01-20 14:49:56,32.4,26.0,29.46,SW,225,24.2,28.0,78,0.00,,,0.00,Rainwise IP-100,2019-01-20 19:49:56,
2019-01-20 14:54:56,32.0,26.0,29.44,SW,225,16.3,27.0,78,0.00,,,0.00,Rainwise IP-100,2019-01-20 19:54:56,
2019-01-20 14:59:56,31.8,26.0,29.45,SW,225,9.8,25.0,77,0.00,,,0.00,Rainwise IP-100,2019-01-20 19:59:56,
2019-01-20 15:04:56,31.7,26.0,29.47,SSW,202,17.5,21.0,78,0.00,,,0.00,Rainwise IP-100,2019-01-20 20:04:56,
2019-01-20 15:09:56,31.4,24.0,29.46,SW,225,14.5,21.0,77,0.00,,,0.00,Rainwise IP-100,2019-01-20 20:09:56,
2019-01-20 15:14:56,31.1,24.0,29.47,SW,225,23.1,24.0,76,0.00,,,0.00,Rainwise IP-100,2019-01-20 20:14:56,
2019-01-20 15:19:56,31.0,24.0,29.44,SW,225,17.7,29.0,76,0.00,,,0.00,Rainwise IP-100,2019-01-20 20:19:56,
2019-01-20 15:24:56,31.1,24.0,29.46,SW,225,8.4,27.0,77,0.00,,,0.00,Rainwise IP-100,2019-01-20 20:24:56,
2019-01-20 15:29:56,31.4,24.0,29.48,SSW,202,12.6,21.0,76,0.00,,,0.00,Rainwise IP-100,2019-01-20 20:29:56,
2019-01-20 15:34:56,31.6,24.0,29.48,SSW,202,13.8,27.0,74,0.00,,,0.00,Rainwise IP-100,2019-01-20 20:34:56,
2019-01-20 15:39:56,31.2,23.0,29.48,SSW,202,17.0,23.0,73,0.00,,,0.00,Rainwise IP-100,2019-01-20 20:39:56,
2019-01-20 15:44:56,30.5,24.0,29.47,SW,225,9.3,27.0,74,0.00,,,0.00,Rainwise IP-100,2019-01-20 20:44:56,
2019-01-20 15:49:56,30.3,24.0,29.50,SW,225,18.9,23.0,74,0.00,,,0.00,Rainwise IP-100,2019-01-20 20:49:56,